Wind_Speed
20 22 21 23 24 22 21 21 19 19 19 17 18 16 14 14 14 10 9 8 5 4 3 2 2 2 2 2 2 2 2 2 2 2 1 1 0 0 1 2 3 3 3 4 5 6 6 5 5 5 5 5 5 5 4 4 4 3 3 3 3 4 4 4 4 4 3 2 3 4 5 6 7 7 7 7 8 9 10 10 11 12 12 13 14
19 22 20 21 25 24 22 21 20 21 22 20 19 16 15 16 15 12 11 9 7 5 4 4 4 4 4 4 4 3 3 3 3 3 3 3 2 2 2 2 1 1 0 0 1 2 2 2 2 2 3 3 3 3 2 2 1 2 2 2 2 2 2 2 2 2 3 3 4 6 7 8 8 9 9 9 9 10 10 11 11 11 12 12 13
18 22 22 21 24 25 23 22 22 24 24 22 20 17 14 15 15 13 12 11 9 8 7 6 7 7 7 7 6 5 5 5 5 5 5 4 3 3 3 3 3 3 2 2 2 2 2 1 1 1 1 1 1 1 2 2 2 2 3 3 3 3 4 5 5 6 6 7 7 8 10 10 11 11 12 13 13 12 13 13 13 13 13 13 13
16 21 23 23 24 26 25 22 23 26 24 22 21 18 16 16 15 14 14 13 11 11 11 10 10 10 10 9 8 7 7 7 6 6 6 6 4 3 3 3 3 4 4 4 4 4 4 4 4 3 2 1 1 1 2 2 3 4 4 5 5 6 6 8 9 10 10 10 11 11 12 13 13 13 13 14 14 14 15 15 15 15 15 14 15
13 18 22 24 25 26 25 22 23 25 23 21 22 22 20 18 16 15 15 14 13 14 14 13 13 13 13 13 12 11 10 10 9 8 9 10 8 6 5 5 4 5 5 4 4 5 5 5 5 5 4 3 2 2 2 3 4 4 5 6 7 8 10 11 13 14 14 13 13 13 13 14 14 15 15 15 15 16 16 16 16 16 15 15 15
11 15 19 21 22 22 23 23 23 24 23 21 23 24 22 20 19 19 17 16 15 16 16 15 14 14 15 16 17 16 14 13 13 13 13 14 13 11 8 8 8 9 9 7 5 5 6 6 6 6 5 5 4 4 4 4 4 4 5 6 7 10 12 13 14 14 15 15 15 15 16 16 16 17 18 18 19 19 19 18 17 17 16 16 16
7 11 15 16 17 18 19 21 23 22 21 20 21 21 20 20 22 23 22 20 18 18 19 18 17 16 18 21 20 18 17 16 15 16 15 14 15 14 12 12 12 14 14 13 10 8 8 9 8 8 7 6 6 6 6 7 7 6 6 6 7 10 12 12 12 13 14 15 17 18 19 19 19 19 19 20 20 21 22 22 21 20 19 18 19
3 6 9 12 13 14 16 19 21 19 18 19 20 20 20 21 22 23 24 24 23 23 22 21 20 19 21 23 21 19 20 20 18 17 17 15 15 16 15 15 16 16 17 16 14 12 12 12 12 12 12 11 9 8 8 9 9 10 10 9 8 9 10 10 10 11 13 16 18 19 21 21 22 22 22 22 22 22 22 23 24 24 23 22 21
1 2 4 7 9 11 13 16 19 19 20 20 20 20 21 21 20 21 22 23 24 23 21 21 21 21 21 22 20 19 21 21 18 17 17 16 15 15 15 18 19 18 18 17 16 16 16 15 15 15 16 16 14 13 12 12 12 12 12 12 11 11 10 10 9 10 13 15 17 19 20 22 23 24 24 25 25 25 25 25 25 26 26 25 23
1 1 3 4 6 9 11 12 15 17 19 21 22 22 22 21 20 20 20 21 22 21 19 19 22 23 22 21 20 21 22 21 19 18 18 16 16 17 19 21 20 18 17 17 17 16 17 17 18 17 17 19 19 18 16 15 14 14 14 15 15 14 13 12 11 12 14 15 15 16 18 20 23 25 26 26 26 27 27 28 29 29 28 27 26
1 1 2 3 5 7 9 10 11 12 14 18 20 21 21 21 20 19 19 20 21 21 20 20 20 18 16 15 15 17 17 16 15 15 15 15 16 18 19 18 17 17 17 18 18 17 17 17 18 18 19 20 21 21 20 19 19 17 16 17 17 17 15 14 14 14 14 14 14 15 18 21 24 25 26 27 27 27 27 29 30 31 31 31 30
1 2 3 4 6 7 8 9 10 10 11 14 16 19 20 20 19 18 19 19 18 16 15 12 10 8 6 5 7 8 8 8 9 9 9 10 12 14 14 14 14 15 16 16 17 17 16 17 18 19 19 20 20 21 22 22 22 21 20 19 19 19 17 16 15 15 14 14 15 16 19 21 24 25 27 27 28 27 28 29 31 32 32 33 33
1 2 3 4 6 7 8 9 10 10 10 11 13 15 16 16 14 13 12 11 9 8 7 6 5 5 4 4 5 5 6 7 7 8 8 9 10 12 12 13 13 13 13 14 14 15 15 16 18 18 19 19 18 19 21 23 24 24 22 21 20 20 19 17 16 16 15 16 17 19 20 21 23 25 27 28 28 29 29 30 31 33 34 34 35
3 3 3 4 5 5 7 7 8 9 10 10 10 11 11 11 10 9 8 8 7 7 6 6 6 6 6 6 7 7 8 9 9 10 11 11 10 10 10 11 11 11 11 12 12 13 14 15 16 17 17 18 19 19 20 23 25 24 22 21 21 21 20 18 17 17 17 18 19 21 22 23 24 25 27 28 30 31 32 33 33 34 35 35 35
4 4 4 4 4 5 6 6 7 8 9 9 9 9 8 7 7 6 6 6 6 6 6 6 7 7 8 9 9 10 10 11 12 12 12 11 11 10 9 9 10 10 10 11 11 12 13 14 15 16 17 18 18 18 18 20 24 24 22 23 23 23 21 19 18 18 19 20 21 22 23 24 25 27 29 30 32 33 34 34 34 35 36 36 36
5 5 5 4 3 4 4 5 6 6 7 8 8 8 7 6 6 6 6 7 7 8 7 7 7 7 8 8 9 10 10 11 12 12 12 12 12 12 11 11 10 11 11 11 12 12 13 13 14 14 16 16 16 15 14 17 21 22 23 24 24 23 21 19 19 20 20 21 22 23 25 26 27 29 30 31 32 33 34 34 33 34 36 37 37
6 6 6 5 5 5 5 5 5 5 5 6 7 8 7 7 7 7 8 8 8 7 7 6 6 6 6 6 7 8 9 10 11 12 13 13 12 12 12 12 11 11 11 12 13 14 13 12 12 13 14 14 14 12 12 16 20 22 23 24 23 22 21 20 20 21 21 22 23 25 26 28 29 31 31 32 33 33 33 33 32 33 34 35 36
7 7 8 9 9 7 7 7 6 6 6 7 7 8 8 8 7 7 7 7 6 6 6 5 5 6 6 7 8 9 10 11 12 13 14 14 14 13 13 12 11 11 12 13 14 14 14 12 12 11 11 11 12 11 12 16 20 22 23 23 22 21 21 21 21 22 23 24 25 26 28 29 30 31 31 31 32 32 33 32 32 32 33 34 35
8 8 10 11 10 8 6 8 8 8 8 8 9 9 9 8 8 8 8 7 6 7 7 7 7 7 8 9 10 10 11 12 13 14 15 15 16 15 14 13 12 12 12 13 14 15 15 13 12 10 8 9 10 11 13 17 21 22 22 22 21 21 21 21 22 23 24 26 27 28 29 30 30 30 30 30 31 31 32 32 32 33 33 34 33
10 11 12 13 13 14 12 12 12 13 13 12 11 11 12 11 10 10 9 9 8 8 8 8 8 8 9 10 11 12 13 13 14 14 14 14 14 13 12 12 12 12 13 13 14 14 14 12 11 9 8 8 10 12 15 18 20 21 21 21 20 21 22 23 24 24 26 27 29 30 30 30 29 30 30 31 31 31 32 32 32 32 32 32 32
15 15 16 15 16 17 16 14 14 15 15 14 13 12 12 12 12 11 11 10 10 9 10 10 10 10 11 12 13 14 15 15 16 16 15 13 12 11 10 10 10 11 11 12 12 11 11 10 9 8 9 10 11 14 16 18 19 20 20 20 21 22 24 24 25 26 28 29 30 31 30 30 31 31 32 32 32 32 32 32 32 31 31 30 30
16 17 19 19 18 18 17 16 16 16 17 16 14 13 13 14 14 14 14 14 14 13 13 13 12 12 12 13 14 15 16 18 18 17 14 12 12 11 10 10 10 10 10 9 9 8 8 8 8 9 10 11 13 14 16 17 18 19 20 21 22 23 24 25 26 28 29 30 31 31 31 31 32 32 33 33 33 32 33 32 32 31 30 29 29
17 17 18 20 21 21 21 21 20 21 21 21 20 21 22 23 23 21 20 20 18 17 16 15 14 13 14 14 15 16 17 18 18 17 14 12 11 11 11 10 10 9 8 8 8 8 8 8 9 9 10 12 14 15 17 18 19 20 21 21 23 24 26 27 28 29 29 30 31 31 31 32 32 33 33 32 32 32 32 32 31 31 30 29 29
19 19 18 18 20 21 23 23 23 23 23 22 22 22 23 24 24 23 22 20 19 18 16 15 15 15 15 16 17 18 18 18 17 16 15 12 11 11 11 11 10 9 8 8 8 9 9 9 9 11 13 14 16 17 18 19 20 21 22 23 24 25 26 26 27 28 29 29 30 31 32 32 32 33 33 32 32 32 32 32 31 30 30 30 29
20 20 19 19 18 19 20 21 22 22 21 21 21 20 20 21 22 22 21 21 19 18 18 17 17 16 17 18 18 18 18 18 16 15 15 13 12 12 12 11 10 9 9 9 10 9 9 9 11 14 15 16 16 17 18 19 21 22 23 23 23 23 24 25 26 27 28 29 30 31 32 32 32 33 33 33 33 32 32 32 31 30 29 30 30
22 21 21 20 19 19 18 18 18 20 21 21 22 21 21 21 21 21 21 21 20 19 19 18 18 18 18 18 17 17 17 17 16 16 16 15 13 13 13 11 10 10 10 10 11 11 11 12 13 14 15 15 16 17 19 19 20 21 21 21 21 22 23 25 26 27 29 30 31 32 32 32 32 32 32 33 33 32 31 31 31 30 29 30 31
24 25 24 23 22 22 21 19 18 18 19 21 22 22 22 21 22 22 22 21 21 20 20 19 19 19 18 17 16 16 16 16 16 16 15 14 13 14 14 12 10 10 11 11 12 11 11 12 13 14 15 16 16 16 17 18 18 18 18 19 21 22 24 25 26 27 28 29 31 31 31 32 32 31 31 32 31 30 29 29 31 31 30 30 32
27 27 27 27 27 26 25 24 22 21 20 20 21 22 22 21 21 21 22 21 21 20 20 20 21 20 19 17 16 16 17 17 15 14 13 13 13 14 13 11 11 11 11 12 12 12 12 12 13 14 14 14 13 14 15 15 16 18 19 20 21 22 23 24 25 26 27 28 29 29 29 30 30 30 30 30 30 29 28 29 30 30 29 29 30
28 29 29 30 30 30 29 28 27 25 24 23 22 22 22 21 21 21 20 21 21 21 21 21 21 20 19 18 17 17 18 16 14 13 12 12 14 14 13 12 12 12 12 12 12 11 12 12 12 12 12 12 12 13 14 16 17 18 19 20 21 21 22 23 24 24 25 26 26 27 28 29 29 29 29 30 29 28 27 27 27 27 27 27 27
29 30 30 31 32 32 32 32 31 29 28 27 25 25 24 23 23 22 20 20 20 20 21 21 20 19 19 18 18 18 17 15 13 14 14 14 15 15 14 14 13 12 11 11 11 10 10 10 10 10 11 11 13 14 15 16 16 17 17 18 19 20 20 21 22 22 23 24 26 27 27 28 28 28 28 28 28 27 26 25 25 25 26 26 25
32 33 32 32 32 33 34 35 35 33 32 30 29 27 26 25 25 24 24 22 21 21 21 21 20 19 19 19 18 17 16 15 15 16 15 15 15 15 14 13 12 10 10 10 8 8 9 9 9 9 10 11 12 13 13 14 15 15 16 17 17 18 19 20 21 22 24 25 26 27 27 27 27 27 26 26 27 26 26 25 26 26 26 26 26
36 36 36 36 35 34 35 36 36 36 35 34 32 31 29 28 27 26 25 25 25 24 23 23 22 22 20 19 19 18 17 17 17 16 15 15 16 15 14 11 10 10 10 9 7 7 7 7 8 9 9 10 11 11 12 13 14 15 16 17 17 18 18 19 21 23 24 25 26 26 25 25 25 25 25 25 25 26 26 26 26 26 25 25 26
35 36 37 37 37 36 36 36 36 37 37 36 35 34 32 31 30 28 27 26 26 26 24 24 24 23 22 21 21 19 18 17 17 16 15 16 16 15 12 11 10 10 9 8 6 5 5 6 7 8 8 9 9 10 11 12 13 15 17 18 19 19 19 19 20 22 22 23 24 24 24 24 24 24 24 23 23 24 25 25 25 25 25 25 25
29 31 33 33 34 35 36 35 35 36 36 36 36 36 35 34 32 30 29 28 28 27 25 24 24 23 23 23 24 22 19 18 17 16 16 16 16 14 11 11 11 10 8 6 4 3 4 5 6 6 7 7 8 9 10 12 14 16 17 19 19 19 18 18 19 20 21 22 22 23 23 23 23 23 22 22 23 23 24 24 24 24 24 25 25
28 30 30 30 31 32 33 34 34 33 33 34 35 35 36 36 35 33 32 30 28 26 25 23 22 23 24 25 24 22 20 19 18 16 17 16 15 13 11 11 11 10 7 5 3 3 4 5 5 5 6 7 7 9 11 12 14 16 18 19 20 19 18 17 18 19 20 22 23 23 23 23 22 21 21 22 22 23 23 23 23 23 23 24 24
28 30 30 30 29 29 30 31 32 32 30 29 29 31 33 34 34 34 33 29 27 24 22 21 20 21 23 23 22 20 19 18 18 17 17 16 14 12 11 11 10 8 6 3 2 3 4 4 5 5 5 6 7 9 11 12 14 16 17 19 20 19 19 18 18 19 20 22 23 23 24 24 22 21 21 21 22 22 22 22 21 22 22 23 23
23 25 26 26 27 27 26 27 28 29 28 27 25 26 28 30 31 32 30 27 25 24 21 20 19 19 20 21 20 19 19 18 18 17 16 15 13 12 10 9 7 6 4 2 1 3 4 5 5 5 5 6 7 9 10 12 14 15 17 18 19 20 19 18 18 19 20 22 24 25 25 24 23 21 21 21 22 22 21 21 21 21 22 21 21
16 18 19 21 23 23 23 23 24 23 23 25 25 24 25 27 27 27 26 24 23 21 19 18 18 19 22 24 24 23 22 21 21 19 17 15 13 12 10 8 6 5 3 0 2 4 5 5 4 4 4 5 7 8 10 12 13 15 17 19 20 20 19 18 18 18 19 22 25 27 26 25 23 21 21 22 22 22 22 21 21 21 21 21 20
13 15 17 18 18 18 17 18 18 17 18 21 23 23 24 24 24 24 23 21 18 17 16 16 17 19 23 25 27 27 25 24 22 19 17 15 13 11 10 8 5 3 1 2 3 5 5 5 4 4 4 5 7 9 11 12 14 15 18 20 21 21 20 20 19 19 19 22 25 27 27 26 24 23 22 22 22 22 22 21 20 20 21 21 20
11 13 13 11 9 10 10 10 11 12 13 17 19 20 21 21 21 21 19 17 15 15 14 14 16 20 22 24 26 25 24 22 20 17 15 14 13 12 9 6 4 2 2 3 4 5 5 5 5 4 4 5 7 9 11 13 14 16 18 20 21 22 21 20 21 20 20 22 24 26 27 27 25 23 23 23 22 21 21 20 20 20 20 20 21
10 12 11 7 2 3 4 5 7 9 11 13 14 15 16 17 18 17 16 15 15 14 13 14 17 20 23 23 21 19 19 17 16 15 14 13 12 10 7 5 3 3 3 4 5 5 5 5 5 5 5 6 8 9 11 13 14 16 18 20 22 22 21 21 21 21 21 22 24 26 28 27 25 23 23 23 22 21 20 20 19 19 19 19 20
10 11 11 10 8 6 5 6 8 10 11 12 13 15 17 18 18 16 15 15 16 16 16 18 20 22 22 21 19 17 15 14 14 14 13 12 10 8 5 4 4 4 5 5 5 5 5 5 5 5 6 7 8 10 11 13 15 16 18 20 22 22 21 21 21 22 22 23 24 26 28 28 25 23 23 23 23 22 20 19 18 18 18 18 18
14 13 11 10 9 8 6 7 8 9 10 11 12 14 16 16 15 13 12 13 16 18 21 24 25 24 22 20 19 17 15 14 13 12 10 9 8 6 4 4 4 5 5 5 5 5 5 5 5 6 6 8 9 11 13 14 16 17 18 20 21 22 22 22 22 23 23 24 25 27 29 29 25 23 23 24 24 22 20 19 18 17 17 17 17
20 19 17 15 14 13 11 10 9 8 8 9 10 12 13 13 12 12 12 15 18 22 24 25 25 23 22 20 19 17 15 14 12 11 9 8 6 5 3 3 4 5 6 6 6 5 4 4 5 6 7 9 10 12 13 15 16 17 18 19 21 22 22 23 23 24 25 26 27 29 30 29 25 23 24 25 24 23 20 18 17 16 16 16 16
23 23 22 21 20 18 16 15 13 12 11 12 13 14 14 14 15 16 18 21 23 24 24 23 21 21 21 19 18 16 14 12 11 9 8 7 5 4 2 3 5 6 6 6 5 5 4 5 5 5 7 9 10 12 13 13 15 16 18 19 20 21 22 23 24 25 25 26 27 29 30 28 25 24 25 25 24 22 20 18 16 15 15 14 14
23 23 24 23 23 22 21 19 18 18 17 18 18 18 18 19 21 23 24 24 23 22 21 20 19 18 17 16 14 12 10 8 8 8 7 6 5 3 3 4 5 5 5 5 5 5 5 5 4 5 7 8 10 11 11 12 14 15 17 18 19 20 21 22 23 24 24 25 26 29 29 27 25 24 24 23 22 20 19 17 15 14 13 13 12
20 21 22 22 22 22 22 21 21 21 21 20 21 21 21 22 23 24 23 22 20 18 18 17 16 14 12 11 9 8 6 6 6 7 7 6 4 4 4 5 5 5 5 5 5 6 5 4 4 5 7 8 8 9 10 12 14 15 16 17 18 19 19 20 22 23 24 24 25 27 27 26 25 24 22 21 20 19 18 17 15 13 12 11 11
17 18 19 19 19 19 18 18 18 18 18 18 18 18 18 18 18 18 17 16 15 14 13 12 11 9 8 7 7 6 5 5 6 7 7 6 5 6 6 6 5 5 5 5 6 6 5 4 4 5 6 6 7 8 10 12 14 15 16 17 17 18 18 19 20 22 23 23 24 25 26 24 23 22 21 20 19 19 18 17 15 13 11 10 10
16 16 16 16 16 16 16 15 15 14 14 13 13 13 12 12 11 11 12 11 11 10 9 8 6 5 4 4 4 4 5 6 7 7 7 7 8 8 7 6 5 5 5 5 5 4 3 3 4 4 4 4 6 8 10 12 15 16 17 17 17 17 17 18 19 21 22 22 22 23 24 23 21 20 19 19 18 18 17 16 14 12 11 10 9
14 14 14 14 15 15 14 14 14 14 13 12 11 11 11 10 9 9 9 8 8 7 6 5 4 3 3 3 3 4 6 7 8 9 9 10 10 9 7 5 4 4 4 4 4 3 2 3 3 3 3 4 6 8 10 12 15 16 17 18 18 17 16 16 17 19 21 21 21 22 22 22 20 18 18 18 18 17 16 15 13 12 11 10 10
13 13 13 13 13 13 12 12 12 12 12 10 10 10 9 8 8 7 7 6 5 4 3 2 2 2 2 3 5 6 8 9 9 9 9 9 9 8 6 5 4 4 4 3 3 2 2 3 3 2 3 4 6 8 10 12 14 16 17 18 18 17 16 16 16 18 20 20 20 20 21 20 19 17 18 18 18 17 16 15 13 12 11 10 10
Wind_Direction
223 225 229 222 218 223 224 221 215 209 211 214 210 214 227 221 209 210 211 203 202 200 204 234 245 252 246 239 241 236 244 260 267 273 261 251 267 152 87 100 110 108 108 109 111 113 108 103 97 91 92 92 89 86 82 85 81 71 72 76 81 93 102 110 113 108 86 29 2 346 341 335 330 326 323 325 324 324 326 327 324 322 319 316 312
220 218 220 219 219 221 224 226 221 215 216 218 216 213 217 215 208 208 213 213 217 224 236 252 256 264 267 273 282 284 287 284 281 280 273 270 273 275 291 295 319 43 37 26 76 104 112 118 117 105 97 92 88 84 75 66 58 33 12 8 7 10 16 20 30 24 356 339 328 324 322 318 318 319 318 320 323 326 328 329 327 325 323 319 314
222 220 217 219 221 221 228 236 228 220 220 222 219 211 208 210 209 211 215 218 227 236 242 254 260 265 268 270 272 274 280 284 286 288 281 276 273 273 284 289 290 290 282 284 296 307 319 311 273 212 158 98 83 71 49 29 10 356 348 343 339 341 347 348 345 340 332 325 319 316 316 315 316 319 322 324 326 326 325 326 327 327 326 323 317
222 223 222 223 223 224 234 240 227 219 222 224 221 217 214 213 213 217 218 220 231 241 248 257 264 268 271 271 272 268 266 268 273 279 281 284 285 283 283 281 279 278 273 276 279 281 290 294 292 285 282 297 322 341 0 3 355 351 348 345 341 341 345 346 343 337 333 329 325 321 320 320 320 319 321 322 321 321 321 322 324 325 326 325 320
219 223 226 229 231 234 240 238 226 220 222 223 222 224 226 223 219 221 224 227 236 245 250 254 260 268 269 269 273 275 273 269 265 266 269 274 280 289 293 289 280 273 266 267 281 288 290 288 287 284 278 278 282 293 314 330 341 345 341 338 340 341 340 338 334 330 328 327 327 327 325 324 322 320 318 318 316 315 316 317 318 319 319 319 316
222 224 227 229 233 237 238 233 227 223 223 223 223 226 231 229 224 223 226 231 239 246 246 244 250 260 263 266 270 270 269 267 267 270 271 270 271 275 284 287 283 279 276 272 277 291 298 296 289 286 282 275 271 274 286 296 306 317 319 319 324 329 329 327 323 321 321 323 323 325 326 324 322 320 320 321 320 317 314 312 312 312 311 309 308
231 226 224 224 227 232 232 229 226 224 224 223 221 224 229 229 230 232 232 233 240 247 249 247 251 259 265 269 269 266 266 266 264 267 269 267 268 271 278 282 281 283 286 286 286 288 291 288 284 281 275 264 258 261 272 284 288 288 288 290 301 313 317 316 313 313 315 316 316 316 318 320 321 320 320 321 320 317 314 310 308 307 308 309 308
226 219 214 211 216 224 227 226 226 225 223 221 222 226 229 232 236 239 238 238 241 246 250 253 256 263 270 269 262 258 265 267 262 262 262 260 264 270 276 279 278 279 280 281 279 275 274 275 277 277 273 263 255 253 257 264 269 270 271 271 278 290 296 296 297 303 308 310 310 309 311 314 317 318 318 318 316 315 315 315 314 312 311 313 313
148 180 198 203 214 225 228 228 230 231 232 232 233 235 237 238 237 236 237 241 247 252 255 255 258 266 273 271 261 256 262 265 262 261 261 259 260 265 272 277 277 275 272 271 269 265 264 267 270 274 277 276 273 268 263 260 259 263 268 271 272 273 275 277 280 290 298 303 307 310 311 311 311 312 313 315 317 318 320 320 320 318 315 314 314
132 144 176 197 216 229 232 231 233 236 238 240 240 241 244 244 240 240 242 246 254 262 265 262 264 270 274 274 269 261 259 262 262 261 260 260 262 266 271 274 275 270 265 264 263 261 261 263 264 267 272 275 274 271 269 267 264 262 265 268 269 268 269 271 275 285 295 301 308 314 316 314 312 311 311 312 315 317 318 319 320 320 319 315 312
244 210 206 206 208 219 228 232 235 236 235 235 237 240 243 244 245 250 252 253 257 264 266 266 267 268 268 267 264 258 257 261 263 263 264 265 267 268 268 269 270 267 264 262 262 260 258 258 260 262 266 270 269 266 267 268 267 265 262 262 264 267 270 273 275 283 294 303 310 314 316 318 316 314 313 312 312 313 314 316 319 320 320 319 316
233 245 241 229 219 217 223 227 229 227 224 225 230 233 237 243 248 251 250 251 254 256 258 257 253 249 251 254 251 250 254 261 266 271 272 269 268 269 270 270 271 272 271 269 268 267 264 261 259 257 258 263 265 264 264 265 267 268 267 265 266 270 273 275 277 283 293 303 308 312 315 317 317 316 315 314 313 313 313 315 318 319 320 320 318
171 218 223 220 222 223 224 223 220 218 215 217 222 225 229 233 234 230 227 227 228 226 223 219 216 222 235 244 251 256 260 264 268 272 272 270 271 273 274 273 273 274 275 275 274 272 270 268 266 262 259 258 258 259 261 261 262 264 265 266 268 271 274 276 280 286 296 304 308 311 312 314 316 316 315 313 313 314 314 315 317 318 317 317 316
167 186 195 199 203 206 210 210 204 203 203 201 203 205 208 210 206 202 201 200 203 207 211 220 230 241 249 255 261 263 263 265 266 268 270 272 275 277 277 277 276 275 275 276 277 276 275 273 271 268 263 258 254 254 258 261 259 257 258 262 267 270 273 278 285 292 298 303 306 309 310 312 314 314 313 312 313 314 315 316 317 316 315 314 314
190 198 204 208 207 204 202 197 192 193 194 193 194 194 197 203 204 206 208 208 213 217 224 233 239 246 254 258 258 258 258 259 260 263 266 269 272 276 278 280 282 282 283 286 287 288 285 280 274 270 266 261 255 251 255 261 260 255 254 259 265 268 272 279 287 293 297 301 306 309 311 313 313 311 311 312 313 314 315 315 316 315 313 312 313
195 203 204 206 210 216 219 211 205 203 200 201 203 201 201 207 213 221 226 229 232 232 232 237 241 246 254 257 259 260 259 258 259 261 264 266 268 270 271 274 280 284 289 295 300 302 299 291 282 274 268 262 253 248 254 261 259 254 254 258 262 267 273 280 286 290 295 300 305 308 309 310 310 309 310 311 312 313 313 313 313 313 310 310 310
215 223 227 235 233 226 230 232 228 225 216 209 207 204 204 209 219 233 240 240 238 234 232 236 244 252 259 264 268 271 271 272 272 271 271 272 271 271 271 271 275 281 288 296 302 306 306 301 290 278 269 260 250 247 251 253 251 251 252 255 261 269 276 281 285 289 295 300 303 303 303 304 306 308 310 311 311 311 311 311 311 310 308 308 308
238 231 225 229 224 213 219 230 231 233 230 222 217 215 215 221 228 232 232 231 230 231 236 245 257 264 267 268 270 273 277 280 278 276 276 276 275 276 276 275 275 280 288 294 301 307 309 307 298 285 270 261 256 255 251 246 245 246 250 256 265 273 278 281 284 290 297 299 299 299 299 301 304 306 307 308 309 310 309 310 310 309 308 308 309
234 221 214 218 219 220 235 239 235 240 242 235 228 222 219 223 227 226 227 231 237 243 253 267 275 275 273 274 279 282 286 289 287 283 280 278 278 278 277 277 279 282 287 293 299 305 309 310 308 298 283 276 273 263 247 240 242 246 253 262 270 275 279 283 288 294 297 297 295 296 297 299 301 303 304 305 306 306 306 307 307 307 307 307 308
241 238 237 239 239 240 245 243 238 241 245 242 235 228 226 228 232 233 236 239 244 254 267 277 282 282 283 286 292 295 297 300 301 297 292 288 285 280 277 278 281 283 288 292 298 304 308 311 311 307 298 291 281 262 246 243 248 256 264 272 276 279 283 287 292 295 294 293 293 294 296 298 299 301 303 304 304 304 304 304 305 305 305 305 304
252 246 242 240 232 227 228 229 226 228 233 235 232 229 229 230 230 231 232 236 247 262 273 278 282 286 291 294 297 300 302 306 309 308 301 294 290 287 284 284 284 286 290 294 299 305 308 307 304 297 289 281 272 263 256 255 260 266 272 276 278 282 286 289 291 291 291 291 293 295 297 299 301 303 304 304 305 305 304 304 304 304 304 303 302
265 256 246 241 235 231 233 236 233 230 230 227 226 232 239 241 241 243 245 249 259 268 271 274 277 283 288 291 295 299 303 309 314 313 304 295 292 292 292 292 292 293 295 295 295 298 300 298 293 287 282 276 272 269 267 267 269 273 276 280 284 287 289 290 290 291 291 293 295 297 299 301 302 303 303 304 304 304 303 304 304 304 303 301 299
271 268 259 251 246 245 246 247 246 246 243 238 239 246 250 248 247 249 250 252 255 259 263 267 272 277 282 285 289 294 300 307 312 311 303 297 298 299 300 299 297 294 293 289 284 284 285 286 284 283 283 282 280 279 278 279 280 282 285 287 289 290 290 290 291 292 294 296 297 298 301 303 304 304 304 303 303 303 304 305 305 304 303 300 297
262 265 264 260 255 251 249 247 247 249 249 245 245 247 247 245 244 243 243 245 248 252 257 263 268 272 276 279 283 289 294 299 303 302 298 297 302 307 308 303 293 287 284 279 274 272 270 271 276 281 283 283 283 282 283 285 287 289 290 290 289 288 289 291 293 295 296 298 300 302 304 305 304 304 303 304 304 305 307 307 306 304 302 299 296
253 254 255 257 256 254 251 248 245 243 241 239 237 237 238 240 242 242 242 244 246 250 254 258 263 268 272 277 282 287 290 292 293 292 289 291 297 305 308 303 291 282 278 275 272 268 264 268 279 285 285 283 282 283 284 286 286 287 288 288 288 289 292 295 297 299 301 302 302 303 303 303 303 303 304 305 306 308 309 308 305 303 302 299 296
255 254 252 252 252 251 250 247 243 239 235 233 233 234 235 237 239 241 244 245 247 250 254 256 260 266 272 276 280 283 286 289 290 286 279 277 285 295 299 295 287 278 274 274 271 264 261 271 282 287 288 286 283 283 283 283 283 283 284 287 291 295 298 300 301 302 302 302 302 302 303 304 304 305 306 306 307 308 309 306 304 304 303 301 297
263 260 258 256 254 252 250 248 244 240 237 235 234 234 235 237 240 243 244 246 248 251 254 256 262 269 272 272 273 278 282 286 290 285 274 268 277 286 286 282 278 273 271 271 268 264 266 276 284 286 286 283 280 280 280 280 282 285 289 294 298 301 302 302 303 303 303 303 304 305 307 308 308 308 308 307 307 308 307 305 303 303 303 301 298
270 267 264 261 259 257 255 253 250 247 244 242 241 240 239 239 241 245 248 251 253 255 258 261 265 267 266 264 268 273 274 276 281 281 272 267 271 275 273 270 269 267 265 265 266 269 276 284 287 286 282 280 278 280 282 285 290 295 298 301 302 302 302 302 303 305 306 307 309 310 311 311 311 311 310 308 308 308 307 305 304 304 304 304 303
272 270 268 266 263 261 260 258 255 253 250 248 247 247 247 245 244 245 247 249 251 254 256 258 259 259 258 261 266 270 271 271 270 268 263 259 258 259 258 257 256 257 259 262 264 270 279 285 286 284 282 281 283 287 290 294 297 299 301 302 302 303 306 308 309 310 311 312 313 314 315 314 313 313 311 310 310 310 309 308 307 307 308 309 308
272 271 270 268 265 263 262 261 260 259 257 254 252 250 250 249 249 248 247 246 246 246 247 249 251 252 254 258 262 266 268 264 258 258 258 254 250 250 249 249 248 249 254 259 262 268 276 279 279 279 282 285 288 293 295 297 299 301 303 307 310 313 315 315 315 316 317 317 317 318 317 316 316 315 315 314 315 315 314 313 313 313 314 314 313
272 271 271 269 266 264 263 261 259 258 257 256 254 253 252 251 250 250 249 248 247 247 248 249 249 248 249 251 255 259 259 255 254 259 258 250 245 244 242 240 241 247 255 258 258 260 264 268 273 279 284 288 292 295 298 302 306 310 313 318 322 323 323 321 321 321 322 321 321 321 320 320 320 319 319 319 319 319 319 318 318 318 317 316 314
273 273 272 271 269 267 264 262 260 259 257 254 252 251 251 251 250 250 249 250 250 250 250 249 248 246 246 246 247 250 250 250 254 256 251 243 238 235 232 234 239 248 252 247 240 243 252 263 275 284 287 290 295 301 307 314 320 325 327 330 330 330 328 326 325 325 326 325 324 324 323 322 321 320 320 319 319 318 317 317 317 316 315 313 311
274 274 273 271 269 267 264 261 258 257 256 255 253 250 249 248 248 249 249 250 251 250 249 248 248 248 246 243 242 242 243 246 248 246 240 234 227 222 222 229 235 238 236 228 224 237 260 274 283 288 291 298 308 316 324 331 337 340 340 338 336 334 331 328 328 329 329 329 328 327 325 324 322 321 319 318 317 316 315 316 316 315 313 311 310
276 275 273 271 270 267 263 260 256 253 252 252 251 249 248 246 245 246 247 248 250 251 251 252 252 251 245 239 236 235 236 240 240 233 225 219 214 211 216 224 224 218 210 207 224 255 279 288 292 296 304 314 323 332 342 349 351 350 348 345 341 337 332 330 332 333 333 334 333 332 330 328 324 321 319 317 317 317 317 317 316 314 312 310 309
279 278 276 274 272 269 266 262 258 254 250 248 246 245 245 243 242 243 245 247 249 252 253 254 253 248 241 235 233 232 232 232 227 217 210 207 203 203 210 215 213 206 196 196 234 276 293 301 303 309 318 327 339 351 358 0 358 355 352 350 347 342 336 334 335 335 337 338 338 336 335 332 327 321 318 317 318 319 319 318 317 315 314 313 311
277 276 275 274 273 271 268 265 261 255 251 247 244 242 241 239 237 237 239 243 245 245 245 247 248 243 237 233 231 228 223 218 211 202 198 196 196 200 207 210 205 196 190 195 251 303 313 313 314 321 329 338 354 5 6 3 359 356 353 352 349 346 341 337 335 334 337 341 342 342 340 335 330 324 319 317 318 318 319 319 319 318 316 314 311
281 277 275 274 272 271 268 265 261 256 249 242 237 236 235 233 232 230 231 234 236 235 235 239 241 238 233 227 219 210 203 196 192 189 187 187 192 198 201 199 191 185 182 188 317 323 321 320 321 325 334 350 5 10 6 0 357 355 353 352 350 346 342 337 332 332 338 345 348 348 345 339 333 327 321 318 318 319 319 319 319 318 315 312 309
295 289 286 281 274 268 263 259 256 254 248 238 230 228 228 227 223 220 221 225 228 228 229 232 233 235 232 218 200 189 184 180 179 181 182 184 188 190 185 179 175 177 185 275 331 325 321 321 317 320 336 357 7 7 2 357 354 352 352 352 351 348 343 339 334 334 341 349 351 349 346 342 337 331 325 321 320 321 320 320 319 318 316 314 312
310 306 303 293 275 258 249 246 246 247 242 231 222 220 223 221 214 210 212 218 220 219 220 222 226 232 228 206 183 175 177 177 176 179 180 179 179 178 173 171 171 179 219 304 321 321 316 311 308 314 335 358 5 1 356 352 350 350 351 351 350 348 347 345 343 341 344 349 351 349 347 344 340 335 330 326 324 323 322 321 321 321 319 318 316
340 336 329 312 274 238 225 228 232 231 226 217 212 214 218 214 206 201 204 210 212 209 208 214 222 221 209 189 173 170 173 173 173 176 176 172 170 170 167 167 176 206 266 301 314 315 309 302 301 311 331 354 0 354 347 344 344 347 349 350 349 349 350 350 348 345 345 348 350 348 346 344 341 336 332 329 327 326 324 323 324 323 322 320 320
8 7 8 15 42 162 173 187 200 203 200 197 196 198 199 194 189 191 200 207 206 200 196 203 206 198 184 172 167 168 169 167 167 170 170 168 170 171 171 180 210 250 285 303 309 306 300 296 301 314 335 351 351 345 338 337 338 342 346 349 349 349 350 352 350 346 345 347 348 347 346 344 342 337 334 332 330 328 327 327 327 325 324 323 322
34 30 31 45 67 88 115 146 164 168 165 165 169 173 175 176 179 187 197 202 200 195 189 185 181 173 165 161 162 165 167 167 167 167 168 172 177 182 195 217 244 277 294 297 299 299 295 297 309 326 338 342 340 336 333 332 334 339 345 349 349 349 350 352 350 347 346 347 348 347 345 344 343 341 338 335 332 328 327 328 329 328 326 325 322
57 56 52 57 70 82 100 123 139 145 150 156 161 164 166 169 174 179 185 190 191 187 178 169 162 158 157 160 163 164 167 170 171 173 179 188 195 205 223 242 268 288 289 289 295 297 294 302 322 331 331 332 334 334 332 331 335 341 346 348 349 349 352 352 351 349 349 349 348 347 346 346 346 344 341 338 335 331 329 330 331 330 328 327 324
60 64 65 65 67 71 77 88 100 115 132 142 146 150 155 159 162 164 166 169 170 166 160 154 152 152 155 158 161 164 169 177 183 189 197 203 207 212 225 254 280 285 282 286 294 297 300 316 327 326 324 329 333 333 332 333 337 341 345 347 348 350 352 353 353 352 351 350 349 348 347 347 348 346 342 340 338 334 331 332 332 332 332 332 329
60 66 70 72 73 74 77 82 88 97 109 118 126 134 140 143 143 143 145 147 147 147 146 147 148 151 155 158 162 167 174 181 186 188 187 187 190 200 231 278 287 283 282 290 298 308 320 324 320 319 323 328 329 329 331 336 340 342 344 346 347 350 352 353 354 355 353 351 349 349 348 349 349 347 343 342 340 336 332 332 334 336 337 338 337
60 66 72 77 81 83 84 86 90 96 102 109 115 122 127 130 131 131 133 135 138 140 144 148 151 155 159 164 168 173 178 180 181 182 180 180 189 220 279 298 291 283 287 299 309 320 323 318 316 323 326 327 328 331 335 341 346 347 345 345 345 349 352 353 354 355 354 352 350 350 349 349 349 347 346 344 343 340 337 336 336 337 340 344 345
59 63 68 73 78 84 88 91 94 98 103 108 113 118 122 125 127 128 130 134 139 145 151 155 159 164 171 179 186 193 197 193 187 189 196 204 222 263 294 300 293 289 298 309 316 321 323 325 333 332 326 327 333 337 341 348 353 352 349 346 346 348 351 353 355 355 354 353 353 352 350 349 348 349 349 348 346 344 342 341 340 340 343 349 352
62 65 67 69 71 75 80 84 88 93 98 102 106 111 116 120 123 127 133 139 145 152 159 164 170 178 188 198 204 204 205 202 200 204 213 228 251 273 285 289 289 293 303 314 321 326 332 342 340 328 324 333 341 342 346 356 360 358 354 351 349 349 351 354 355 355 354 355 355 353 352 351 350 351 353 352 351 348 346 346 345 346 348 354 358
60 63 67 71 73 74 74 76 78 80 84 88 93 98 104 111 118 126 135 143 148 153 159 164 168 170 173 178 180 183 193 204 213 222 234 248 262 271 274 274 277 288 303 315 321 324 331 337 331 324 329 343 345 345 352 0 1 359 358 357 354 351 352 354 355 355 355 356 356 356 354 354 354 355 357 357 357 355 353 351 351 353 357 4 8
54 55 59 64 68 72 74 76 78 77 76 77 81 87 93 100 107 114 120 125 130 134 136 136 138 139 142 155 179 199 212 220 229 239 247 255 262 264 257 252 261 278 294 303 303 302 314 324 321 321 335 343 341 346 356 0 358 358 0 1 358 354 353 355 356 356 356 357 358 358 357 357 358 359 1 3 4 4 3 1 0 2 7 17 24
55 55 55 58 61 65 69 73 78 80 80 78 77 81 86 91 95 100 104 106 111 119 125 130 151 187 208 218 224 228 231 234 241 247 250 252 251 242 230 231 251 271 280 282 275 271 293 306 304 306 325 333 337 346 355 357 354 355 359 2 1 359 356 356 357 357 357 358 0 1 1 1 2 4 7 9 11 12 12 12 11 12 17 26 33
Height
1516 1518 1519 1519 1521 1523 1524 1526 1528 1531 1533 1535 1536 1538 1540 1542 1543 1544 1545 1546 1547 1547 1548 1548 1549 1550 1550 1551 1552 1552 1553 1553 1553 1553 1553 1553 1552 1552 1552 1552 1552 1552 1552 1551 1551 1551 1551 1551 1552 1552 1552 1552 1553 1553 1553 1553 1554 1554 1554 1554 1554 1555 1555 1555 1556 1556 1556 1557 1557 1557 1556 1556 1556 1555 1555 1555 1554 1553 1553 1552 1552 1551 1551 1550 1549
1514 1516 1518 1518 1519 1521 1523 1525 1527 1529 1531 1533 1535 1537 1539 1541 1541 1543 1544 1545 1546 1547 1548 1548 1549 1550 1550 1551 1552 1552 1553 1554 1554 1554 1554 1554 1553 1553 1553 1553 1552 1553 1552 1552 1552 1552 1552 1552 1552 1553 1553 1553 1553 1553 1554 1554 1554 1554 1554 1555 1555 1555 1555 1555 1556 1556 1556 1556 1556 1556 1556 1555 1555 1554 1554 1553 1553 1552 1552 1551 1551 1550 1550 1549 1548
1512 1515 1517 1518 1519 1521 1523 1524 1526 1528 1530 1532 1534 1536 1539 1540 1540 1542 1543 1544 1545 1546 1547 1548 1548 1549 1550 1551 1551 1552 1553 1553 1553 1554 1555 1554 1554 1554 1553 1553 1553 1553 1553 1553 1553 1553 1553 1553 1553 1553 1553 1553 1554 1554 1554 1554 1554 1554 1554 1555 1555 1555 1555 1555 1555 1555 1555 1556 1555 1555 1555 1554 1554 1553 1553 1552 1552 1551 1551 1550 1550 1549 1548 1548 1547
1512 1513 1516 1517 1519 1521 1522 1523 1524 1526 1529 1531 1534 1536 1537 1538 1539 1541 1542 1543 1544 1545 1546 1547 1548 1548 1549 1550 1551 1552 1552 1552 1552 1553 1554 1554 1555 1554 1554 1553 1553 1553 1553 1553 1553 1553 1553 1553 1553 1553 1553 1553 1553 1553 1554 1554 1554 1554 1554 1554 1554 1554 1555 1555 1555 1555 1555 1554 1554 1554 1554 1553 1553 1552 1552 1552 1551 1550 1550 1549 1549 1548 1548 1547 1545
1511 1512 1514 1516 1518 1519 1520 1522 1523 1525 1528 1531 1533 1534 1535 1537 1538 1539 1540 1542 1543 1544 1545 1546 1546 1547 1548 1549 1551 1551 1551 1551 1551 1551 1552 1553 1553 1554 1554 1553 1553 1552 1552 1552 1553 1553 1553 1553 1553 1553 1553 1553 1553 1553 1553 1553 1553 1553 1553 1554 1554 1554 1554 1554 1554 1554 1553 1553 1553 1553 1552 1552 1552 1551 1550 1550 1550 1549 1549 1548 1547 1547 1546 1546 1545
1510 1511 1513 1515 1516 1518 1519 1521 1523 1525 1527 1529 1531 1532 1534 1535 1536 1537 1538 1540 1541 1542 1543 1543 1544 1545 1547 1548 1549 1550 1550 1550 1550 1551 1551 1552 1552 1552 1553 1552 1552 1551 1551 1552 1553 1552 1552 1553 1552 1552 1552 1552 1552 1552 1552 1552 1552 1552 1552 1553 1553 1553 1553 1553 1553 1553 1552 1552 1552 1551 1551 1551 1550 1550 1549 1548 1547 1547 1546 1546 1546 1545 1545 1544 1543
1509 1510 1511 1513 1515 1517 1518 1520 1522 1524 1526 1527 1529 1531 1532 1533 1534 1535 1537 1538 1539 1540 1540 1542 1543 1544 1545 1546 1547 1548 1548 1549 1549 1549 1550 1551 1550 1550 1550 1551 1551 1550 1550 1551 1551 1551 1551 1552 1552 1552 1552 1552 1551 1551 1551 1552 1552 1552 1552 1551 1551 1552 1552 1552 1552 1551 1551 1551 1551 1550 1550 1549 1548 1548 1547 1546 1546 1545 1543 1543 1542 1542 1542 1541 1540
1509 1509 1510 1512 1513 1516 1517 1519 1521 1523 1525 1527 1528 1530 1531 1531 1532 1534 1536 1536 1537 1538 1539 1541 1542 1543 1544 1544 1545 1546 1546 1546 1547 1547 1547 1548 1548 1548 1548 1549 1549 1549 1548 1549 1549 1549 1550 1550 1550 1550 1550 1550 1550 1550 1550 1550 1550 1551 1551 1551 1550 1550 1550 1550 1550 1550 1550 1550 1550 1549 1548 1548 1547 1546 1545 1544 1544 1543 1542 1540 1539 1538 1538 1538 1537
1509 1509 1510 1511 1513 1515 1517 1519 1520 1522 1524 1525 1526 1528 1529 1530 1531 1533 1534 1535 1535 1536 1538 1540 1541 1541 1541 1541 1542 1543 1543 1544 1544 1545 1545 1545 1545 1546 1546 1547 1547 1547 1547 1547 1547 1547 1548 1548 1548 1549 1548 1548 1549 1549 1549 1549 1549 1549 1549 1549 1549 1549 1549 1549 1549 1549 1549 1548 1548 1548 1547 1546 1545 1544 1543 1542 1541 1540 1539 1538 1537 1536 1535 1535 1534
1509 1510 1510 1512 1513 1515 1516 1518 1520 1521 1522 1523 1524 1526 1528 1529 1530 1531 1532 1533 1533 1534 1537 1539 1539 1539 1539 1538 1539 1539 1540 1541 1542 1542 1542 1542 1542 1543 1543 1544 1544 1544 1545 1545 1545 1546 1546 1546 1546 1547 1547 1547 1547 1547 1548 1548 1547 1547 1548 1548 1548 1548 1547 1547 1547 1547 1547 1547 1546 1546 1546 1545 1544 1543 1542 1541 1539 1538 1536 1535 1534 1533 1532 1531 1531
1509 1510 1511 1512 1514 1515 1516 1517 1519 1520 1521 1522 1522 1524 1525 1526 1527 1529 1530 1530 1531 1532 1534 1535 1536 1536 1536 1536 1536 1537 1538 1539 1539 1540 1540 1539 1540 1540 1541 1541 1542 1542 1543 1543 1543 1543 1544 1544 1544 1544 1545 1544 1545 1545 1545 1546 1545 1546 1546 1546 1545 1545 1546 1545 1545 1545 1545 1545 1544 1544 1543 1543 1542 1541 1540 1539 1538 1537 1535 1534 1532 1531 1529 1528 1527
1510 1510 1511 1512 1513 1514 1515 1516 1518 1518 1519 1520 1521 1522 1523 1524 1525 1527 1528 1528 1529 1530 1531 1532 1533 1534 1534 1534 1535 1536 1537 1537 1537 1537 1538 1538 1538 1539 1539 1539 1540 1540 1541 1541 1541 1541 1541 1542 1542 1542 1542 1542 1542 1542 1543 1543 1543 1543 1543 1543 1543 1543 1543 1543 1543 1543 1543 1543 1542 1541 1541 1540 1540 1539 1538 1537 1536 1535 1533 1532 1530 1529 1527 1526 1524
1511 1511 1512 1512 1513 1513 1514 1515 1516 1517 1518 1519 1520 1521 1521 1523 1524 1525 1526 1527 1528 1529 1530 1531 1532 1533 1533 1534 1534 1535 1535 1535 1536 1536 1537 1537 1537 1537 1538 1538 1538 1539 1539 1539 1539 1539 1539 1539 1539 1539 1539 1539 1539 1539 1540 1540 1541 1541 1541 1541 1541 1541 1541 1541 1541 1541 1541 1541 1540 1539 1538 1538 1537 1537 1536 1535 1534 1532 1531 1530 1529 1527 1525 1524 1522
1512 1513 1513 1513 1513 1514 1514 1515 1516 1516 1517 1518 1519 1520 1521 1522 1523 1524 1525 1526 1527 1528 1529 1530 1531 1532 1532 1533 1533 1533 1534 1534 1535 1535 1535 1536 1536 1536 1536 1536 1537 1537 1537 1537 1537 1537 1537 1537 1537 1537 1536 1536 1536 1537 1537 1538 1538 1538 1538 1538 1539 1538 1538 1538 1538 1538 1538 1538 1537 1536 1536 1535 1534 1534 1533 1532 1531 1530 1528 1527 1526 1524 1522 1521 1520
1512 1513 1514 1514 1514 1514 1515 1516 1516 1517 1517 1518 1519 1519 1520 1521 1522 1523 1524 1525 1526 1527 1528 1529 1530 1530 1531 1531 1532 1532 1533 1533 1534 1534 1534 1534 1534 1535 1535 1535 1535 1535 1535 1535 1535 1535 1535 1534 1534 1534 1534 1534 1534 1534 1534 1535 1535 1536 1536 1536 1536 1536 1536 1536 1536 1535 1535 1535 1534 1534 1533 1532 1532 1531 1530 1529 1527 1526 1525 1524 1522 1520 1518 1516 1516
1512 1513 1513 1514 1514 1515 1516 1516 1516 1517 1518 1518 1519 1519 1520 1521 1521 1522 1523 1524 1525 1526 1527 1528 1528 1529 1530 1531 1531 1531 1532 1532 1533 1533 1533 1533 1533 1533 1533 1533 1534 1534 1533 1533 1533 1533 1533 1532 1532 1531 1531 1531 1531 1531 1532 1533 1533 1534 1534 1534 1534 1534 1534 1534 1533 1533 1533 1532 1532 1531 1530 1530 1529 1528 1526 1525 1524 1523 1521 1520 1519 1517 1514 1512 1511
1511 1513 1514 1514 1514 1515 1516 1516 1516 1517 1518 1518 1519 1519 1520 1520 1521 1522 1523 1524 1524 1525 1526 1527 1527 1528 1529 1530 1530 1531 1531 1531 1532 1531 1532 1532 1532 1532 1532 1532 1532 1532 1532 1531 1531 1531 1530 1530 1529 1529 1529 1529 1529 1529 1530 1531 1531 1532 1532 1532 1532 1532 1532 1531 1531 1531 1530 1530 1529 1529 1528 1527 1526 1525 1523 1522 1521 1519 1517 1516 1515 1513 1511 1508 1507
1512 1513 1514 1514 1514 1514 1515 1516 1516 1517 1518 1519 1519 1520 1520 1520 1521 1521 1522 1523 1524 1524 1525 1526 1527 1528 1528 1529 1529 1530 1530 1530 1530 1530 1530 1530 1530 1530 1529 1530 1530 1530 1530 1529 1529 1529 1528 1528 1528 1527 1527 1527 1527 1527 1528 1529 1530 1530 1530 1530 1530 1530 1529 1529 1529 1528 1528 1527 1527 1526 1525 1524 1523 1522 1521 1519 1518 1516 1514 1512 1511 1509 1507 1505 1503
1512 1513 1513 1513 1514 1514 1514 1515 1516 1517 1518 1519 1519 1519 1519 1520 1520 1521 1521 1522 1523 1524 1524 1525 1526 1526 1527 1527 1528 1528 1528 1528 1528 1528 1528 1528 1528 1528 1527 1528 1528 1528 1528 1527 1527 1527 1527 1526 1526 1526 1526 1526 1526 1526 1527 1528 1528 1528 1528 1528 1528 1527 1527 1526 1526 1526 1525 1525 1524 1523 1523 1521 1520 1519 1518 1517 1516 1514 1512 1510 1508 1506 1504 1502 1500
1511 1512 1512 1512 1513 1514 1514 1514 1515 1516 1517 1518 1518 1518 1519 1519 1519 1519 1520 1521 1522 1523 1523 1524 1525 1525 1525 1525 1526 1526 1526 1526 1526 1526 1526 1525 1526 1525 1525 1526 1526 1526 1526 1526 1525 1525 1525 1525 1525 1524 1525 1525 1525 1526 1526 1527 1527 1527 1527 1526 1526 1525 1525 1524 1524 1523 1523 1522 1521 1520 1519 1518 1517 1516 1515 1514 1513 1511 1509 1507 1505 1503 1501 1499 1497
1509 1510 1510 1510 1511 1512 1512 1513 1514 1515 1515 1516 1516 1517 1517 1517 1518 1518 1519 1520 1520 1521 1522 1523 1523 1523 1524 1524 1524 1524 1524 1524 1524 1524 1524 1524 1524 1523 1523 1524 1524 1524 1524 1524 1524 1524 1524 1524 1524 1524 1524 1524 1525 1525 1525 1525 1525 1525 1525 1524 1524 1523 1523 1522 1521 1521 1520 1519 1518 1517 1516 1515 1513 1512 1511 1510 1509 1507 1506 1504 1502 1500 1498 1496 1494
1507 1507 1508 1508 1509 1509 1510 1511 1512 1512 1513 1513 1514 1515 1516 1516 1516 1517 1517 1518 1519 1519 1520 1521 1521 1522 1522 1522 1522 1522 1522 1522 1522 1522 1522 1522 1522 1522 1522 1522 1522 1522 1522 1522 1522 1523 1523 1523 1523 1523 1523 1523 1524 1524 1524 1524 1524 1523 1523 1522 1522 1521 1520 1519 1518 1517 1516 1515 1514 1513 1512 1511 1510 1508 1507 1506 1505 1503 1502 1500 1499 1497 1495 1493 1491
1506 1506 1506 1506 1506 1507 1507 1508 1509 1509 1510 1511 1511 1512 1513 1513 1514 1514 1515 1515 1516 1517 1518 1519 1519 1519 1520 1520 1520 1520 1520 1520 1520 1520 1520 1520 1520 1520 1520 1520 1520 1521 1521 1521 1521 1521 1522 1522 1522 1522 1522 1522 1523 1523 1522 1522 1522 1521 1521 1520 1519 1519 1518 1516 1515 1514 1513 1512 1510 1509 1508 1507 1505 1504 1503 1502 1500 1499 1497 1496 1494 1493 1491 1489 1488
1503 1503 1503 1503 1503 1504 1504 1505 1505 1506 1507 1507 1508 1509 1510 1510 1510 1510 1511 1512 1513 1514 1515 1516 1516 1517 1517 1517 1518 1518 1518 1518 1518 1518 1518 1518 1518 1518 1518 1518 1519 1519 1519 1520 1520 1520 1520 1521 1521 1521 1521 1521 1521 1521 1520 1520 1520 1519 1518 1517 1516 1515 1514 1513 1512 1511 1510 1508 1507 1505 1504 1503 1501 1500 1498 1497 1495 1494 1493 1491 1489 1488 1486 1484 1483
1500 1500 1500 1501 1500 1501 1501 1501 1502 1502 1503 1504 1505 1506 1506 1507 1507 1507 1508 1508 1509 1510 1512 1513 1513 1514 1514 1515 1515 1515 1516 1516 1516 1516 1516 1517 1517 1516 1516 1517 1517 1517 1518 1518 1518 1519 1519 1519 1519 1519 1519 1519 1518 1518 1518 1517 1517 1516 1515 1514 1513 1512 1511 1510 1509 1508 1506 1505 1503 1502 1500 1499 1498 1496 1494 1492 1491 1489 1488 1486 1484 1483 1481 1479 1478
1497 1497 1497 1497 1497 1497 1498 1498 1499 1499 1500 1500 1501 1502 1503 1503 1504 1504 1505 1505 1506 1507 1508 1509 1510 1511 1511 1512 1512 1513 1513 1514 1514 1514 1514 1514 1514 1515 1515 1515 1515 1515 1516 1516 1517 1517 1517 1517 1517 1517 1517 1516 1516 1516 1515 1515 1514 1513 1512 1511 1510 1510 1508 1507 1506 1505 1503 1502 1500 1498 1497 1495 1493 1492 1490 1488 1486 1485 1483 1481 1479 1478 1477 1475 1472
1493 1493 1493 1493 1493 1494 1494 1495 1495 1496 1496 1497 1497 1498 1499 1500 1500 1501 1501 1502 1503 1504 1505 1506 1507 1507 1508 1509 1510 1511 1511 1511 1511 1511 1512 1512 1512 1512 1513 1513 1513 1514 1514 1514 1515 1515 1515 1515 1515 1515 1515 1514 1514 1513 1513 1512 1512 1511 1510 1509 1509 1507 1506 1505 1504 1502 1500 1498 1496 1494 1493 1491 1489 1487 1486 1484 1483 1482 1480 1478 1475 1473 1472 1470 1468
1489 1489 1489 1489 1489 1489 1490 1490 1491 1492 1492 1493 1494 1494 1495 1496 1496 1497 1498 1499 1500 1501 1502 1503 1503 1504 1505 1506 1507 1508 1508 1508 1509 1509 1509 1510 1510 1510 1511 1511 1512 1512 1512 1512 1513 1513 1513 1513 1513 1513 1513 1512 1511 1511 1511 1510 1510 1509 1509 1508 1507 1505 1504 1503 1501 1499 1497 1495 1493 1491 1489 1487 1485 1484 1482 1481 1479 1478 1477 1475 1472 1470 1468 1466 1464
1484 1484 1484 1484 1485 1485 1485 1486 1487 1487 1488 1488 1489 1490 1492 1492 1493 1494 1495 1496 1497 1498 1498 1499 1501 1501 1502 1503 1504 1505 1505 1506 1506 1506 1507 1507 1508 1508 1509 1509 1510 1510 1510 1511 1511 1511 1512 1512 1512 1511 1511 1510 1510 1510 1509 1509 1509 1508 1507 1506 1505 1503 1502 1500 1498 1496 1494 1492 1490 1488 1486 1484 1482 1481 1479 1477 1475 1474 1473 1471 1469 1466 1465 1463 1461
1480 1480 1480 1480 1480 1481 1481 1481 1482 1483 1483 1484 1484 1486 1487 1489 1490 1491 1492 1493 1494 1494 1495 1497 1498 1498 1499 1500 1501 1501 1502 1503 1503 1504 1504 1505 1505 1506 1506 1507 1507 1508 1508 1509 1509 1510 1510 1510 1510 1510 1509 1509 1509 1509 1508 1508 1507 1506 1505 1504 1502 1501 1499 1497 1495 1493 1492 1490 1488 1486 1484 1482 1479 1478 1476 1474 1472 1471 1469 1468 1466 1463 1462 1460 1458
1474 1474 1475 1475 1475 1476 1476 1476 1477 1478 1479 1480 1481 1481 1483 1484 1485 1487 1488 1490 1491 1491 1492 1493 1494 1495 1496 1497 1497 1498 1499 1500 1500 1501 1501 1502 1502 1503 1504 1505 1506 1506 1507 1507 1508 1508 1508 1508 1508 1508 1508 1508 1508 1508 1507 1506 1505 1504 1503 1502 1500 1498 1497 1495 1493 1491 1489 1487 1485 1483 1481 1479 1477 1475 1473 1471 1469 1467 1466 1465 1463 1461 1459 1457 1456
1469 1468 1469 1469 1470 1470 1471 1471 1471 1472 1473 1475 1476 1477 1479 1480 1481 1482 1484 1485 1487 1488 1489 1490 1491 1492 1493 1493 1494 1495 1496 1496 1497 1498 1498 1499 1500 1501 1502 1503 1504 1505 1506 1506 1506 1506 1507 1507 1507 1507 1507 1507 1507 1506 1506 1505 1504 1502 1501 1499 1498 1497 1495 1493 1491 1489 1487 1485 1483 1481 1479 1477 1474 1472 1471 1469 1467 1465 1463 1462 1460 1459 1457 1455 1453
1463 1462 1462 1462 1463 1463 1464 1464 1465 1466 1467 1469 1471 1472 1474 1475 1476 1478 1480 1481 1483 1484 1485 1486 1487 1488 1489 1490 1491 1492 1492 1493 1494 1495 1495 1496 1498 1499 1501 1502 1503 1504 1504 1505 1505 1505 1506 1506 1506 1506 1506 1506 1505 1505 1504 1503 1502 1500 1499 1498 1496 1495 1493 1491 1490 1488 1486 1484 1481 1479 1477 1475 1473 1471 1469 1467 1465 1463 1461 1459 1458 1456 1454 1452 1451
1457 1456 1456 1455 1455 1455 1456 1457 1458 1460 1461 1463 1464 1466 1468 1470 1472 1474 1475 1477 1478 1480 1481 1483 1484 1484 1486 1486 1487 1488 1489 1490 1491 1492 1493 1494 1496 1497 1499 1501 1502 1502 1503 1504 1504 1505 1505 1505 1505 1505 1505 1505 1504 1503 1503 1502 1500 1499 1498 1496 1495 1493 1492 1490 1488 1486 1485 1482 1480 1478 1475 1473 1471 1469 1467 1465 1463 1461 1459 1457 1455 1454 1452 1450 1448
1452 1451 1450 1449 1449 1449 1449 1450 1451 1453 1454 1456 1458 1459 1462 1464 1467 1469 1471 1472 1474 1476 1477 1479 1480 1481 1482 1483 1484 1485 1487 1488 1489 1490 1491 1493 1494 1496 1498 1499 1500 1501 1503 1503 1504 1504 1504 1504 1504 1504 1504 1503 1503 1502 1501 1500 1499 1498 1497 1495 1494 1492 1490 1489 1487 1485 1483 1481 1479 1476 1474 1471 1469 1467 1465 1463 1461 1459 1457 1455 1453 1451 1449 1447 1445
1447 1445 1444 1444 1443 1443 1443 1443 1444 1446 1448 1450 1452 1454 1456 1458 1461 1464 1466 1468 1470 1472 1474 1475 1476 1478 1479 1480 1481 1483 1484 1486 1487 1488 1490 1491 1493 1495 1497 1498 1500 1501 1502 1503 1503 1503 1503 1503 1503 1503 1503 1502 1502 1501 1500 1499 1498 1497 1496 1494 1493 1491 1489 1487 1486 1484 1482 1480 1477 1474 1472 1469 1467 1465 1463 1461 1459 1457 1455 1453 1451 1449 1447 1445 1443
1441 1440 1439 1438 1438 1437 1438 1438 1438 1440 1442 1445 1447 1449 1451 1453 1456 1459 1462 1464 1466 1468 1470 1472 1473 1475 1476 1478 1479 1480 1482 1484 1486 1488 1489 1491 1493 1495 1496 1498 1499 1501 1501 1502 1502 1502 1502 1502 1502 1502 1501 1501 1501 1500 1499 1499 1498 1497 1495 1494 1492 1490 1488 1486 1484 1482 1480 1478 1475 1472 1470 1468 1465 1463 1461 1459 1457 1455 1453 1450 1448 1446 1445 1443 1441
1437 1435 1434 1433 1432 1432 1433 1433 1434 1436 1437 1440 1442 1445 1447 1449 1452 1455 1458 1461 1463 1466 1467 1469 1471 1472 1474 1474 1475 1477 1480 1482 1484 1487 1488 1490 1492 1494 1496 1497 1499 1500 1501 1501 1501 1501 1501 1501 1501 1501 1500 1500 1500 1499 1499 1498 1497 1496 1495 1493 1491 1489 1487 1485 1483 1481 1479 1476 1473 1471 1468 1466 1464 1462 1459 1457 1455 1452 1450 1448 1446 1444 1442 1440 1438
1434 1433 1431 1429 1428 1428 1428 1430 1431 1433 1434 1436 1439 1441 1444 1446 1449 1452 1456 1459 1461 1463 1465 1467 1468 1470 1471 1472 1472 1474 1477 1480 1483 1486 1488 1490 1492 1494 1496 1497 1498 1499 1500 1500 1500 1500 1500 1500 1500 1500 1500 1499 1499 1498 1498 1497 1496 1495 1494 1492 1490 1488 1486 1483 1481 1479 1477 1474 1472 1469 1467 1464 1462 1460 1457 1455 1453 1450 1448 1446 1444 1442 1439 1437 1435
1433 1431 1428 1426 1424 1425 1426 1428 1430 1431 1432 1434 1436 1439 1442 1445 1448 1451 1454 1457 1459 1461 1463 1465 1466 1468 1470 1472 1472 1473 1476 1479 1483 1486 1488 1490 1492 1494 1495 1497 1498 1498 1499 1499 1499 1499 1499 1499 1499 1499 1499 1499 1498 1497 1497 1496 1495 1494 1493 1491 1489 1486 1484 1482 1480 1477 1475 1473 1471 1468 1465 1463 1460 1458 1455 1453 1451 1449 1446 1444 1442 1440 1437 1435 1433
1433 1431 1429 1426 1425 1426 1427 1428 1429 1430 1432 1434 1436 1439 1441 1444 1447 1451 1453 1455 1457 1459 1461 1463 1465 1468 1470 1473 1474 1476 1479 1481 1484 1486 1488 1490 1492 1494 1495 1496 1497 1497 1497 1498 1497 1498 1498 1498 1498 1498 1498 1498 1497 1497 1496 1496 1495 1493 1492 1490 1487 1485 1483 1481 1479 1476 1474 1472 1469 1466 1464 1461 1458 1456 1453 1451 1449 1446 1444 1442 1439 1437 1435 1433 1431
1434 1432 1431 1429 1428 1428 1429 1429 1430 1431 1432 1434 1436 1439 1441 1444 1447 1450 1452 1454 1456 1458 1460 1462 1465 1468 1471 1474 1476 1479 1481 1483 1485 1487 1489 1491 1492 1493 1494 1495 1496 1496 1496 1496 1496 1497 1497 1497 1497 1497 1497 1497 1497 1496 1495 1495 1494 1492 1490 1488 1486 1484 1482 1480 1478 1475 1473 1470 1468 1465 1462 1459 1457 1454 1452 1449 1447 1444 1442 1440 1438 1435 1433 1431 1429
1435 1434 1433 1432 1431 1431 1431 1432 1432 1433 1434 1436 1438 1440 1442 1445 1447 1449 1451 1453 1455 1457 1460 1463 1465 1468 1472 1475 1477 1480 1482 1484 1486 1488 1489 1491 1492 1493 1494 1494 1495 1495 1495 1495 1495 1495 1496 1496 1496 1496 1496 1496 1496 1495 1494 1493 1492 1491 1489 1487 1485 1483 1481 1478 1476 1474 1471 1469 1466 1463 1460 1457 1455 1452 1450 1447 1445 1442 1440 1438 1436 1434 1432 1430 1428
1439 1437 1436 1435 1435 1434 1434 1435 1435 1436 1437 1438 1440 1442 1444 1446 1448 1450 1451 1453 1456 1459 1462 1465 1467 1470 1473 1476 1478 1480 1482 1484 1486 1488 1489 1490 1491 1492 1493 1493 1494 1494 1494 1494 1494 1494 1495 1495 1495 1496 1496 1495 1495 1494 1493 1492 1491 1489 1487 1486 1484 1482 1480 1477 1475 1472 1470 1467 1464 1461 1459 1456 1453 1451 1449 1446 1443 1441 1439 1437 1435 1433 1431 1429 1427
1444 1442 1441 1440 1439 1439 1439 1439 1440 1440 1441 1442 1443 1445 1446 1448 1450 1451 1453 1456 1458 1462 1465 1467 1470 1472 1474 1477 1479 1481 1483 1485 1486 1488 1489 1490 1490 1491 1492 1492 1493 1493 1493 1493 1493 1493 1494 1494 1495 1495 1495 1495 1494 1493 1493 1492 1490 1488 1486 1485 1483 1481 1479 1477 1474 1472 1469 1466 1463 1461 1458 1455 1453 1450 1448 1445 1442 1440 1438 1436 1434 1432 1430 1428 1426
1450 1448 1446 1445 1445 1444 1444 1445 1445 1445 1446 1447 1447 1449 1450 1452 1453 1455 1457 1459 1462 1465 1467 1470 1472 1474 1476 1478 1480 1482 1483 1485 1486 1487 1488 1489 1490 1491 1491 1491 1492 1492 1492 1492 1492 1492 1493 1494 1494 1494 1494 1494 1493 1493 1492 1491 1489 1488 1486 1484 1482 1480 1478 1476 1474 1471 1469 1466 1463 1460 1457 1455 1452 1450 1447 1445 1442 1440 1437 1435 1433 1431 1429 1427 1425
1455 1453 1452 1451 1451 1450 1450 1450 1450 1451 1451 1452 1453 1454 1455 1456 1457 1459 1461 1463 1466 1468 1470 1472 1474 1476 1477 1479 1481 1482 1483 1484 1485 1487 1488 1489 1489 1490 1490 1491 1491 1491 1491 1491 1491 1492 1492 1493 1493 1493 1493 1493 1492 1492 1491 1490 1489 1487 1485 1484 1482 1480 1478 1476 1474 1471 1469 1467 1464 1461 1458 1455 1452 1450 1447 1445 1442 1439 1437 1435 1433 1431 1429 1427 1425
1459 1458 1457 1456 1456 1455 1455 1455 1456 1456 1456 1457 1458 1458 1459 1460 1462 1463 1464 1466 1468 1470 1472 1474 1475 1477 1478 1479 1480 1482 1482 1484 1485 1486 1487 1488 1488 1489 1489 1490 1490 1490 1490 1491 1491 1491 1492 1492 1492 1492 1492 1492 1492 1491 1491 1490 1488 1487 1485 1483 1482 1480 1478 1476 1474 1471 1469 1467 1464 1461 1458 1455 1452 1450 1447 1445 1442 1439 1437 1434 1432 1430 1429 1427 1425
1462 1461 1461 1460 1459 1459 1459 1459 1460 1460 1460 1461 1462 1462 1463 1464 1465 1466 1468 1469 1471 1472 1474 1475 1476 1477 1478 1479 1480 1481 1482 1483 1485 1486 1486 1487 1487 1488 1489 1489 1489 1489 1490 1490 1490 1491 1491 1491 1491 1491 1491 1491 1491 1491 1490 1489 1488 1486 1485 1483 1481 1480 1478 1476 1474 1471 1469 1467 1464 1462 1459 1456 1453 1450 1447 1445 1442 1440 1437 1435 1432 1431 1429 1427 1425
1465 1464 1464 1463 1463 1462 1462 1463 1463 1463 1463 1464 1464 1465 1466 1467 1468 1469 1470 1471 1472 1474 1475 1475 1476 1477 1478 1479 1480 1481 1482 1483 1484 1485 1485 1486 1486 1487 1488 1488 1488 1489 1489 1490 1490 1490 1491 1491 1491 1491 1491 1491 1490 1490 1489 1488 1487 1486 1484 1483 1481 1479 1478 1476 1474 1472 1469 1467 1464 1462 1459 1456 1454 1451 1448 1445 1443 1440 1438 1435 1433 1431 1429 1427 1426
1467 1466 1466 1465 1465 1465 1465 1465 1465 1465 1466 1466 1467 1467 1468 1469 1470 1471 1472 1473 1474 1474 1475 1476 1477 1478 1478 1479 1480 1481 1482 1482 1483 1483 1484 1485 1485 1486 1487 1487 1488 1488 1489 1489 1490 1490 1490 1490 1490 1490 1490 1490 1490 1489 1489 1488 1487 1486 1484 1483 1481 1479 1477 1476 1474 1472 1469 1467 1465 1462 1460 1457 1454 1451 1449 1446 1443 1441 1439 1436 1434 1432 1430 1428 1427